START_TIME,STEP,MOV.,M15,t_acc.,M20,t_acc.
1979-08-02 09:00:42.730 ,0,0,,0,,0
1979-08-02 09:01:06.730 ,0,1,0.,24.0,0.,24.0
1979-08-02 09:01:30.730 ,0,0,0.,24.0,0.,24.0
1979-08-02 09:01:54.730 ,1,1,0.,24.0,0.,24.0
1979-08-02 09:02:18.730 ,1,0,0.,24.0,0.,24.0
1979-08-02 09:02:42.730 ,2,1,0.,24.0,0.,24.0
1979-08-02 09:03:06.730 ,2,0,0.,24.0,0.,24.0
1979-08-02 09:03:30.730 ,3,1,0.,24.0,0.,24.0
1979-08-02 09:03:54.730 ,3,0,0.,24.0,0.,24.0
1979-08-02 09:04:18.730 ,4,1,0.,24.0,0.,24.0
1979-08-02 09:04:42.730 ,0,0,0.,24.0,0.,24.0
1979-08-02 09:05:06.730 ,5,1,0.,24.0,0.,24.0
1979-08-02 09:05:30.730 ,5,0,0.,24.0,0.,24.0
1979-08-02 09:05:54.730 ,6,1,0.,24.0,0.,24.0
1979-08-02 09:06:18.730 ,6,0,0.,24.0,0.,24.0
1979-08-02 09:06:42.730 ,7,0,0.,24.0,0.,24.0
1979-08-02 09:07:06.730 ,7,0,0.,24.0,0.,24.0
1979-08-02 09:07:30.730 ,3,1,0.,24.0,0.,24.0
1979-08-02 09:07:54.730 ,0,1,0.,24.0,0.,24.0
1979-08-02 09:08:18.730 ,4,1,0.,24.0,0.,24.0
1979-08-02 09:08:42.730 ,7,1,0.,24.0,0.,24.0
1979-08-02 09:09:06.730 ,3,1,0.,24.0,0.,24.0
1979-08-02 09:09:30.730 ,0,1,0.,24.0,0.,24.0
1979-08-02 09:09:54.730 ,4,1,0.,24.0,0.,24.0
1979-08-02 09:10:18.730 ,7,1,0.,24.0,0.,24.0
1979-08-02 09:10:42.730 ,3,1,0.,24.0,0.,24.0
1979-08-02 09:11:06.730 ,0,1,0.,24.0,0.,24.0
1979-08-02 09:11:30.730 ,4,1,0.,24.0,0.,24.0
1979-08-02 09:11:54.730 ,7,1,0.,24.0,0.,24.0
1979-08-02 09:12:18.730 ,3,1,0.,24.0,0.,24.0
1979-08-02 09:12:42.730 ,0,1,0.,24.0,0.,24.0
1979-08-02 09:13:06.730 ,4,1,1.,24.0,0.,24.0
1979-08-02 09:13:30.730 ,7,1,0.,24.0,0.,24.0
1979-08-02 09:13:54.730 ,3,1,0.,24.0,0.,24.0
1979-08-02 09:14:18.730 ,0,1,0.,24.0,0.,24.0
1979-08-02 09:14:42.730 ,4,1,0.,24.0,0.,24.0
1979-08-02 09:15:06.730 ,7,1,0.,24.0,0.,24.0
1979-08-02 09:15:30.730 ,3,1,0.,24.0,0.,24.0
1979-08-02 09:15:54.730 ,0,1,0.,24.0,0.,24.0
1979-08-02 09:16:18.730 ,4,1,0.,24.0,0.,24.0
1979-08-02 09:16:42.730 ,7,1,0.,24.0,0.,24.0
1979-08-02 09:17:06.720 ,3,1,0.,24.0,0.,24.0
1979-08-02 09:17:30.720 ,0,1,0.,24.0,0.,24.0
1979-08-02 09:17:54.720 ,0,0,0.,24.0,0.,24.0
1979-08-02 09:18:18.720 ,0,0,0.,24.0,0.,24.0
1979-08-02 09:18:42.720 ,5,1,0.,24.0,0.,24.0
1979-08-02 09:19:06.720 ,5,0,0.,24.0,0.,24.0
1979-08-02 09:19:30.720 ,4,1,0.,24.0,0.,24.0
1979-08-02 09:19:54.720 ,4,0,0.,24.0,0.,24.0
1979-08-02 09:20:18.720 ,3,1,0.,24.0,0.,24.0
1979-08-02 09:20:42.720 ,3,0,0.,24.0,0.,24.0
1979-08-02 09:21:06.720 ,2,1,0.,24.0,0.,24.0
1979-08-02 09:21:30.720 ,2,0,0.,24.0,0.,24.0
1979-08-02 09:21:54.720 ,1,1,0.,24.0,0.,24.0
1979-08-02 09:22:18.720 ,1,0,0.,24.0,0.,24.0
1979-08-02 09:22:42.720 ,0,1,0.,24.0,0.,24.0
1979-08-02 09:23:06.720 ,0,0,0.,24.0,0.,24.0
1979-08-02 09:23:30.720 ,0,1,0.,24.0,0.,24.0
1979-08-02 09:23:54.720 ,0,0,0.,24.0,0.,24.0
1979-08-02 09:24:18.720 ,1,1,0.,24.0,0.,24.0
1979-08-02 09:24:42.720 ,1,0,0.,24.0,0.,24.0
1979-08-02 09:25:06.720 ,2,1,0.,24.0,0.,24.0
1979-08-02 09:25:30.720 ,2,0,0.,24.0,0.,24.0
1979-08-02 09:25:54.720 ,3,1,0.,24.0,0.,24.0
1979-08-02 09:26:18.720 ,3,0,0.,24.0,0.,24.0
1979-08-02 09:26:42.720 ,4,1,0.,24.0,0.,24.0
1979-08-02 09:27:06.720 ,4,0,0.,24.0,0.,24.0
1979-08-02 09:27:30.720 ,5,1,0.,24.0,0.,24.0
1979-08-02 09:27:54.720 ,5,0,0.,24.0,0.,24.0
1979-08-02 09:28:18.720 ,6,1,0.,24.0,0.,24.0
1979-08-02 09:28:42.720 ,6,0,0.,24.0,0.,24.0
1979-08-02 09:29:06.720 ,7,1,0.,24.0,0.,24.0
1979-08-02 09:29:30.720 ,7,0,0.,24.0,0.,24.0
1979-08-02 09:29:54.720 ,7,1,0.,24.0,0.,24.0
1979-08-02 09:30:18.720 ,7,0,0.,24.0,0.,24.0
1979-08-02 09:30:42.720 ,6,1,0.,24.0,0.,24.0
1979-08-02 09:31:06.720 ,6,0,0.,24.0,0.,24.0
1979-08-02 09:31:30.720 ,0,0,,0,,0
1979-08-02 09:31:54.720 ,0,0,0.,24.0,0.,24.0
1979-08-02 09:32:18.720 ,4,1,0.,24.0,0.,24.0
1979-08-02 09:32:42.720 ,4,0,0.,24.0,0.,24.0
1979-08-02 09:33:06.720 ,3,1,0.,24.0,0.,24.0
1979-08-02 09:33:30.720 ,3,0,0.,24.0,0.,24.0
1979-08-02 09:33:54.720 ,2,1,0.,24.0,0.,24.0
1979-08-02 09:34:18.720 ,2,0,0.,24.0,0.,24.0
1979-08-02 09:34:42.720 ,1,1,0.,24.0,0.,24.0
1979-08-02 09:35:06.720 ,1,0,0.,24.0,0.,24.0
1979-08-02 09:35:30.720 ,0,1,0.,24.0,0.,24.0
1979-08-02 09:35:54.720 ,0,0,0.,24.0,0.,24.0
1979-08-02 09:36:18.720 ,0,1,0.,24.0,0.,24.0
1979-08-02 09:36:42.720 ,0,0,0.,24.0,0.,24.0
1979-08-02 09:37:06.720 ,1,1,0.,24.0,0.,24.0
1979-08-02 09:37:30.720 ,1,0,0.,24.0,0.,24.0
1979-08-02 09:37:54.720 ,2,1,0.,24.0,0.,24.0
1979-08-02 09:38:18.720 ,2,0,0.,24.0,0.,24.0
1979-08-02 09:38:42.720 ,3,1,0.,24.0,0.,24.0
1979-08-02 09:39:06.720 ,3,0,0.,24.0,0.,24.0
1979-08-02 09:39:30.720 ,4,1,0.,24.0,0.,24.0
1979-08-02 09:39:54.720 ,4,0,0.,24.0,0.,24.0
1979-08-02 09:40:18.720 ,5,1,0.,24.0,0.,24.0
1979-08-02 09:40:42.720 ,5,0,0.,24.0,0.,24.0
1979-08-02 09:41:06.720 ,6,1,0.,24.0,0.,24.0
1979-08-02 09:41:30.720 ,6,0,0.,24.0,0.,24.0
1979-08-02 09:41:54.720 ,7,1,0.,24.0,0.,24.0
1979-08-02 09:42:18.720 ,7,0,0.,24.0,0.,24.0
1979-08-02 09:42:42.720 ,7,1,0.,24.0,0.,24.0
1979-08-02 09:43:06.720 ,7,0,0.,24.0,0.,24.0
1979-08-02 09:43:30.720 ,6,1,0.,24.0,0.,24.0
1979-08-02 09:43:54.720 ,6,0,0.,24.0,0.,24.0
1979-08-02 09:44:18.720 ,5,1,0.,24.0,0.,24.0
1979-08-02 09:44:42.720 ,5,0,0.,24.0,0.,24.0
1979-08-02 09:45:06.720 ,4,1,0.,24.0,0.,24.0
1979-08-02 09:45:30.720 ,4,0,0.,24.0,0.,24.0
1979-08-02 09:45:54.720 ,3,1,0.,24.0,0.,24.0
1979-08-02 09:46:18.720 ,3,0,0.,24.0,0.,24.0
1979-08-02 09:46:42.720 ,2,1,0.,24.0,0.,24.0
1979-08-02 09:47:06.720 ,2,0,0.,24.0,0.,24.0
1979-08-02 09:47:30.720 ,1,1,0.,24.0,0.,24.0
1979-08-02 09:47:54.720 ,1,0,0.,24.0,0.,24.0
1979-08-02 09:48:18.720 ,0,1,0.,24.0,0.,24.0
1979-08-02 09:48:42.720 ,0,0,0.,24.0,0.,24.0
1979-08-02 09:49:06.720 ,0,1,0.,24.0,0.,24.0
1979-08-02 09:49:30.720 ,0,0,0.,24.0,0.,24.0
1979-08-02 09:49:54.720 ,1,1,0.,24.0,0.,24.0
1979-08-02 09:50:18.720 ,1,0,0.,24.0,0.,24.0
1979-08-02 09:50:42.720 ,2,1,0.,24.0,0.,24.0
1979-08-02 09:51:06.720 ,2,0,0.,24.0,0.,24.0
1979-08-02 09:51:30.720 ,3,1,0.,24.0,0.,24.0
1979-08-02 09:51:54.720 ,3,0,0.,24.0,0.,24.0
1979-08-02 09:52:18.720 ,4,1,0.,24.0,0.,24.0
1979-08-02 09:52:42.720 ,4,0,0.,24.0,0.,24.0
1979-08-02 09:53:06.720 ,5,1,0.,24.0,0.,24.0
1979-08-02 09:53:30.720 ,5,0,0.,24.0,0.,24.0
1979-08-02 09:53:54.720 ,6,1,0.,24.0,0.,24.0
1979-08-02 09:54:18.720 ,6,0,0.,24.0,0.,24.0
1979-08-02 09:54:42.720 ,7,0,0.,24.0,0.,24.0
1979-08-02 09:55:06.720 ,7,0,0.,24.0,0.,24.0
1979-08-02 09:55:30.720 ,3,1,0.,24.0,0.,24.0
1979-08-02 09:55:54.720 ,0,1,0.,24.0,0.,24.0
1979-08-02 09:56:18.720 ,4,1,0.,24.0,0.,24.0
1979-08-02 09:56:42.720 ,7,1,0.,24.0,0.,24.0
1979-08-02 09:57:06.720 ,3,1,0.,24.0,0.,24.0
1979-08-02 09:57:30.720 ,0,1,0.,24.0,0.,24.0
1979-08-02 09:57:54.720 ,4,1,0.,24.0,0.,24.0
1979-08-02 09:58:18.720 ,7,1,0.,24.0,0.,24.0
1979-08-02 09:58:42.720 ,3,1,0.,24.0,0.,24.0
1979-08-02 09:59:06.720 ,0,1,0.,24.0,0.,24.0
1979-08-02 09:59:30.720 ,4,1,0.,24.0,0.,24.0
1979-08-02 09:59:54.720 ,7,1,0.,24.0,0.,24.0
1979-08-02 10:00:18.720 ,3,1,0.,24.0,0.,24.0
1979-08-02 10:00:42.720 ,0,1,0.,24.0,0.,24.0
1979-08-02 10:01:06.720 ,4,1,0.,24.0,0.,24.0
1979-08-02 10:01:30.720 ,7,1,0.,24.0,0.,24.0
1979-08-02 10:01:54.720 ,3,1,0.,24.0,0.,24.0
1979-08-02 10:02:18.720 ,0,1,0.,24.0,0.,24.0
1979-08-02 10:02:42.720 ,4,1,0.,24.0,0.,24.0
1979-08-02 10:03:06.720 ,7,1,0.,24.0,0.,24.0
1979-08-02 10:03:30.720 ,3,1,0.,24.0,0.,24.0
1979-08-02 10:03:54.720 ,0,1,0.,24.0,0.,24.0
1979-08-02 10:04:18.720 ,4,1,0.,24.0,0.,24.0
1979-08-02 10:04:42.720 ,7,1,0.,24.0,0.,24.0
1979-08-02 10:05:06.720 ,3,1,0.,24.0,0.,24.0
1979-08-02 10:05:30.720 ,0,1,0.,24.0,0.,24.0
1979-08-02 10:05:54.720 ,0,0,0.,24.0,0.,24.0
1979-08-02 10:06:18.720 ,0,0,0.,24.0,0.,24.0
1979-08-02 10:06:42.720 ,5,1,0.,24.0,0.,24.0
1979-08-02 10:07:06.720 ,5,0,0.,24.0,0.,24.0
1979-08-02 10:07:30.720 ,4,1,0.,24.0,0.,24.0
1979-08-02 10:07:54.720 ,4,0,0.,24.0,0.,24.0
1979-08-02 10:08:18.720 ,3,1,0.,24.0,0.,24.0
1979-08-02 10:08:42.720 ,3,0,0.,24.0,0.,24.0
1979-08-02 10:09:06.720 ,2,1,0.,24.0,0.,24.0
1979-08-02 10:09:30.720 ,2,0,0.,24.0,0.,24.0
1979-08-02 10:09:54.720 ,1,1,0.,24.0,0.,24.0
1979-08-02 10:10:18.720 ,1,0,0.,24.0,0.,24.0
1979-08-02 10:10:42.720 ,0,1,0.,24.0,0.,24.0
1979-08-02 10:11:06.720 ,0,0,0.,24.0,0.,24.0
1979-08-02 10:11:30.720 ,0,1,0.,24.0,0.,24.0
1979-08-02 10:11:54.720 ,0,0,0.,24.0,0.,24.0
1979-08-02 10:12:18.720 ,1,1,0.,24.0,0.,24.0
1979-08-02 10:12:42.720 ,1,0,0.,24.0,0.,24.0
1979-08-02 10:13:06.720 ,2,1,0.,24.0,0.,24.0
1979-08-02 10:13:30.720 ,2,0,0.,24.0,0.,24.0
1979-08-02 10:13:54.720 ,3,1,0.,24.0,0.,24.0
1979-08-02 10:14:18.720 ,3,0,0.,24.0,0.,24.0
1979-08-02 10:14:42.720 ,4,1,0.,24.0,0.,24.0
1979-08-02 10:15:06.720 ,4,0,0.,24.0,0.,24.0
1979-08-02 10:15:30.720 ,5,1,0.,24.0,0.,24.0
1979-08-02 10:15:54.720 ,5,0,0.,24.0,0.,24.0
1979-08-02 10:16:18.720 ,6,1,0.,24.0,0.,24.0
1979-08-02 10:16:42.720 ,6,0,0.,24.0,0.,24.0
1979-08-02 10:17:06.720 ,7,1,0.,24.0,0.,24.0
1979-08-02 10:17:30.720 ,7,0,0.,24.0,0.,24.0
1979-08-02 10:17:54.720 ,7,1,0.,24.0,0.,24.0
1979-08-02 10:18:18.720 ,7,0,0.,24.0,0.,24.0
1979-08-02 10:18:42.720 ,6,1,0.,24.0,0.,24.0
1979-08-02 10:19:06.720 ,6,0,0.,24.0,0.,24.0
1979-08-02 10:19:30.720 ,5,1,0.,24.0,0.,24.0
1979-08-02 10:19:54.720 ,5,0,0.,24.0,0.,24.0
1979-08-02 10:20:18.720 ,4,1,0.,24.0,0.,24.0
1979-08-02 10:20:42.720 ,4,0,0.,24.0,0.,24.0
1979-08-02 10:21:06.720 ,3,1,0.,24.0,0.,24.0
1979-08-02 10:21:30.720 ,3,0,0.,24.0,0.,24.0
1979-08-02 10:21:54.720 ,2,1,0.,24.0,0.,24.0
1979-08-02 10:22:18.720 ,2,0,0.,24.0,0.,24.0
1979-08-02 10:22:42.720 ,1,1,0.,24.0,0.,24.0
1979-08-02 10:23:06.720 ,1,0,0.,24.0,0.,24.0
1979-08-02 10:23:30.720 ,0,1,0.,24.0,0.,24.0
1979-08-02 10:23:54.720 ,0,0,0.,24.0,0.,24.0
1979-08-02 10:24:18.720 ,0,1,0.,24.0,0.,24.0
1979-08-02 10:24:42.720 ,0,0,0.,24.0,0.,24.0
1979-08-02 10:25:06.720 ,1,1,0.,24.0,0.,24.0
1979-08-02 10:25:30.720 ,1,0,0.,24.0,0.,24.0
1979-08-02 10:25:54.720 ,2,1,0.,24.0,0.,24.0
1979-08-02 10:26:18.720 ,2,0,0.,24.0,0.,24.0
1979-08-02 10:26:42.720 ,3,1,0.,24.0,0.,24.0
1979-08-02 10:27:06.720 ,3,0,0.,24.0,0.,24.0
1979-08-02 10:27:30.720 ,4,1,0.,24.0,0.,24.0
1979-08-02 10:27:54.720 ,4,0,0.,24.0,0.,24.0
1979-08-02 10:28:18.720 ,5,1,0.,24.0,0.,24.0
1979-08-02 10:28:42.720 ,5,0,0.,24.0,0.,24.0
1979-08-02 10:29:06.720 ,6,1,0.,24.0,0.,24.0
1979-08-02 10:29:30.720 ,6,0,0.,24.0,0.,24.0
1979-08-02 10:29:54.720 ,7,1,0.,24.0,0.,24.0
1979-08-02 10:30:18.720 ,7,0,0.,24.0,0.,24.0
1979-08-02 10:30:42.720 ,7,1,0.,24.0,0.,24.0
1979-08-02 10:31:06.720 ,7,0,0.,24.0,0.,24.0
1979-08-02 10:31:30.720 ,6,1,0.,24.0,0.,24.0
1979-08-02 10:31:54.720 ,6,0,0.,24.0,0.,24.0
1979-08-02 10:32:18.720 ,5,1,0.,24.0,0.,24.0
1979-08-02 10:32:42.720 ,5,0,0.,24.0,0.,24.0
1979-08-02 10:33:06.720 ,4,1,0.,24.0,0.,24.0
1979-08-02 10:33:30.720 ,4,0,0.,24.0,0.,24.0
1979-08-02 10:33:54.720 ,3,1,0.,24.0,0.,24.0
1979-08-02 10:34:18.720 ,3,0,0.,24.0,0.,24.0
1979-08-02 10:34:42.720 ,2,1,0.,24.0,0.,24.0
1979-08-02 10:35:06.720 ,2,0,0.,24.0,0.,24.0
1979-08-02 10:35:30.720 ,1,1,0.,24.0,0.,24.0
1979-08-02 10:35:54.720 ,1,0,0.,24.0,0.,24.0
1979-08-02 10:36:18.720 ,0,1,0.,24.0,0.,24.0
1979-08-02 10:36:42.720 ,0,0,0.,24.0,0.,24.0
1979-08-02 10:37:06.720 ,0,1,0.,24.0,0.,24.0
1979-08-02 10:37:30.720 ,0,0,0.,24.0,0.,24.0
1979-08-02 10:37:54.720 ,1,1,0.,24.0,0.,24.0
1979-08-02 10:38:18.720 ,1,0,0.,24.0,0.,24.0
1979-08-02 10:38:42.720 ,2,1,0.,24.0,0.,24.0
1979-08-02 10:39:06.720 ,2,0,0.,24.0,0.,24.0
1979-08-02 10:39:30.720 ,3,1,0.,24.0,0.,24.0
1979-08-02 10:39:54.720 ,3,0,0.,24.0,0.,24.0
1979-08-02 10:40:18.720 ,4,1,0.,24.0,0.,24.0
1979-08-02 10:40:42.720 ,4,0,0.,24.0,0.,24.0
1979-08-02 10:41:06.720 ,5,1,0.,24.0,0.,24.0
1979-08-02 10:41:30.720 ,5,0,0.,24.0,0.,24.0
1979-08-02 10:41:54.720 ,6,1,0.,24.0,0.,24.0
1979-08-02 10:42:18.720 ,6,0,0.,24.0,0.,24.0
1979-08-02 10:42:42.720 ,7,0,0.,24.0,0.,24.0
1979-08-02 10:43:06.720 ,7,0,0.,24.0,0.,24.0
1979-08-02 10:43:30.720 ,3,1,0.,24.0,0.,24.0
1979-08-02 10:43:54.720 ,0,1,0.,24.0,0.,24.0
1979-08-02 10:44:18.720 ,4,1,0.,24.0,0.,24.0
1979-08-02 10:44:42.720 ,7,1,0.,24.0,0.,24.0
1979-08-02 10:45:06.720 ,3,1,0.,24.0,0.,24.0
1979-08-02 10:45:30.720 ,0,1,0.,24.0,0.,24.0
1979-08-02 10:45:54.720 ,4,1,0.,24.0,0.,24.0
1979-08-02 10:46:18.720 ,7,1,0.,24.0,0.,24.0
1979-08-02 10:46:42.720 ,3,1,0.,24.0,0.,24.0
1979-08-02 10:47:06.720 ,0,0,,0,,0
1979-08-02 10:47:30.720 ,0,0,0.,24.0,0.,24.0
1979-08-02 10:47:54.720 ,7,1,0.,24.0,0.,24.0
1979-08-02 10:48:18.720 ,3,1,0.,24.0,0.,24.0
1979-08-02 10:48:42.720 ,0,1,0.,24.0,0.,24.0
1979-08-02 10:49:06.720 ,4,1,0.,24.0,0.,24.0
1979-08-02 10:49:30.720 ,7,1,0.,24.0,0.,24.0
1979-08-02 10:49:54.720 ,3,1,0.,24.0,0.,24.0
1979-08-02 10:50:18.720 ,0,1,0.,24.0,0.,24.0
1979-08-02 10:50:42.720 ,4,1,0.,24.0,0.,24.0
1979-08-02 10:51:06.720 ,7,1,0.,24.0,0.,24.0
1979-08-02 10:51:30.720 ,3,1,0.,24.0,0.,24.0
1979-08-02 10:51:54.720 ,0,1,0.,24.0,0.,24.0
1979-08-02 10:52:18.720 ,4,1,0.,24.0,0.,24.0
1979-08-02 10:52:42.720 ,7,1,0.,24.0,0.,24.0
1979-08-02 10:53:06.720 ,3,1,0.,24.0,0.,24.0
1979-08-02 10:53:30.720 ,0,1,0.,24.0,0.,24.0
1979-08-02 10:53:54.720 ,0,0,0.,24.0,0.,24.0
1979-08-02 10:54:18.720 ,0,0,0.,24.0,0.,24.0
1979-08-02 10:54:42.720 ,5,1,0.,24.0,0.,24.0
1979-08-02 10:55:06.720 ,5,0,0.,24.0,0.,24.0
1979-08-02 10:55:30.720 ,4,1,0.,24.0,0.,24.0
1979-08-02 10:55:54.720 ,4,0,0.,24.0,0.,24.0
1979-08-02 10:56:18.720 ,3,1,0.,24.0,0.,24.0
1979-08-02 10:56:42.720 ,3,0,0.,24.0,0.,24.0
1979-08-02 10:57:06.720 ,2,1,0.,24.0,0.,24.0
1979-08-02 10:57:30.720 ,2,0,0.,24.0,0.,24.0
1979-08-02 10:57:54.720 ,1,1,0.,24.0,0.,24.0
1979-08-02 10:58:18.720 ,1,0,0.,24.0,0.,24.0
1979-08-02 10:58:42.720 ,0,1,0.,24.0,0.,24.0
1979-08-02 10:59:06.720 ,0,0,0.,24.0,0.,24.0
1979-08-02 10:59:30.720 ,0,1,0.,24.0,0.,24.0
1979-08-02 10:59:54.720 ,0,0,0.,24.0,0.,24.0
1979-08-02 11:00:18.720 ,1,1,0.,24.0,0.,24.0
1979-08-02 11:00:42.720 ,1,0,0.,24.0,0.,24.0
1979-08-02 11:01:06.720 ,2,1,0.,24.0,0.,24.0
1979-08-02 11:01:30.720 ,2,0,0.,24.0,0.,24.0
1979-08-02 11:01:54.720 ,3,1,0.,24.0,0.,24.0
1979-08-02 11:02:18.720 ,3,0,0.,24.0,0.,24.0
1979-08-02 11:02:42.720 ,4,1,0.,24.0,0.,24.0
1979-08-02 11:03:06.720 ,4,0,0.,24.0,0.,24.0
1979-08-02 11:03:30.720 ,0,0,,0,,0
1979-08-02 11:03:54.720 ,0,0,,0,,0
1979-08-02 11:04:55.320 ,0,0,0.,24.0,0.,24.0
1979-08-02 11:05:06.720 ,7,1,0.,24.0,0.,24.0
1979-08-02 11:05:30.720 ,7,0,0.,24.0,0.,24.0
1979-08-02 11:05:54.720 ,7,1,0.,24.0,0.,24.0
1979-08-02 11:06:18.720 ,7,0,0.,24.0,0.,24.0
1979-08-02 11:06:42.720 ,6,1,0.,24.0,0.,24.0
1979-08-02 11:07:06.720 ,6,0,0.,24.0,0.,24.0
1979-08-02 11:07:30.720 ,5,1,0.,24.0,0.,24.0
1979-08-02 11:07:54.720 ,5,0,0.,24.0,0.,24.0
1979-08-02 11:08:18.720 ,4,1,0.,24.0,0.,24.0
1979-08-02 11:08:42.720 ,4,0,0.,24.0,0.,24.0
1979-08-02 11:09:06.720 ,3,1,0.,24.0,0.,24.0
1979-08-02 11:09:30.720 ,3,0,0.,24.0,0.,24.0
1979-08-02 11:09:54.720 ,2,1,0.,24.0,0.,24.0
1979-08-02 11:10:18.720 ,2,0,0.,24.0,0.,24.0
1979-08-02 11:10:42.720 ,1,1,0.,24.0,0.,24.0
1979-08-02 11:11:06.720 ,1,0,0.,24.0,0.,24.0
1979-08-02 11:11:30.720 ,0,1,0.,24.0,0.,24.0
1979-08-02 11:11:54.720 ,0,0,0.,24.0,0.,24.0
1979-08-02 11:12:18.720 ,0,1,0.,24.0,0.,24.0
1979-08-02 11:12:42.720 ,0,0,0.,24.0,0.,24.0
1979-08-02 11:13:06.720 ,1,1,0.,24.0,0.,24.0
1979-08-02 11:13:30.720 ,1,0,0.,24.0,0.,24.0
1979-08-02 11:13:54.720 ,2,1,0.,24.0,0.,24.0
1979-08-02 11:14:18.720 ,2,0,0.,24.0,0.,24.0
1979-08-02 11:14:42.720 ,3,1,0.,24.0,0.,24.0
1979-08-02 11:15:06.720 ,3,0,0.,24.0,0.,24.0
1979-08-02 11:15:30.720 ,4,1,0.,24.0,0.,24.0
1979-08-02 11:15:54.720 ,4,0,0.,24.0,0.,24.0
1979-08-02 11:16:18.720 ,5,1,0.,24.0,0.,24.0
1979-08-02 11:16:42.720 ,5,0,0.,24.0,0.,24.0
1979-08-02 11:17:06.720 ,6,1,0.,24.0,0.,24.0
1979-08-02 11:17:30.720 ,6,0,0.,24.0,0.,24.0
1979-08-02 11:17:54.720 ,7,1,0.,24.0,0.,24.0
1979-08-02 11:18:18.720 ,7,0,0.,24.0,0.,24.0
1979-08-02 11:18:42.720 ,7,1,0.,24.0,0.,24.0
1979-08-02 11:19:06.720 ,7,0,0.,24.0,0.,24.0
1979-08-02 11:19:30.720 ,6,1,0.,24.0,0.,24.0
1979-08-02 11:19:54.720 ,6,0,0.,24.0,0.,24.0
1979-08-02 11:20:18.720 ,5,1,0.,24.0,0.,24.0
1979-08-02 11:20:42.720 ,5,0,0.,24.0,0.,24.0
1979-08-02 11:21:06.720 ,4,1,0.,24.0,0.,24.0
1979-08-02 11:21:30.720 ,4,0,0.,24.0,0.,24.0
1979-08-02 11:21:54.720 ,3,1,0.,24.0,0.,24.0
1979-08-02 11:22:18.720 ,3,0,0.,24.0,0.,24.0
1979-08-02 11:22:42.720 ,2,1,0.,24.0,0.,24.0
1979-08-02 11:23:06.720 ,2,0,0.,24.0,0.,24.0
1979-08-02 11:23:30.720 ,1,1,0.,24.0,0.,24.0
1979-08-02 11:23:54.720 ,1,0,0.,24.0,0.,24.0
1979-08-02 11:24:18.720 ,0,1,0.,24.0,0.,24.0
1979-08-02 11:24:42.720 ,0,0,0.,24.0,0.,24.0
1979-08-02 11:25:06.720 ,0,1,0.,24.0,0.,24.0
1979-08-02 11:25:30.720 ,0,0,0.,24.0,0.,24.0
1979-08-02 11:25:54.720 ,1,1,0.,24.0,0.,24.0
1979-08-02 11:26:18.720 ,1,0,0.,24.0,0.,24.0
1979-08-02 11:26:42.720 ,2,1,0.,24.0,0.,24.0
1979-08-02 11:27:06.720 ,2,0,0.,24.0,0.,24.0
1979-08-02 11:27:30.720 ,3,1,0.,24.0,0.,24.0
1979-08-02 11:27:54.720 ,3,0,0.,24.0,0.,24.0
1979-08-02 11:28:18.720 ,4,1,0.,24.0,0.,24.0
1979-08-02 11:28:42.720 ,4,0,0.,24.0,0.,24.0
1979-08-02 11:29:06.720 ,5,1,0.,24.0,0.,24.0
1979-08-02 11:29:30.720 ,5,0,0.,24.0,0.,24.0
1979-08-02 11:29:54.720 ,6,1,0.,24.0,0.,24.0
1979-08-02 11:30:18.720 ,6,0,0.,24.0,0.,24.0
1979-08-02 11:30:42.720 ,7,0,0.,24.0,0.,24.0
1979-08-02 11:31:06.720 ,7,0,0.,24.0,0.,24.0
1979-08-02 11:31:30.720 ,3,1,0.,24.0,0.,24.0
1979-08-02 11:31:54.720 ,0,1,0.,24.0,0.,24.0
1979-08-02 11:32:18.720 ,4,1,0.,24.0,0.,24.0
1979-08-02 11:32:42.720 ,7,1,0.,24.0,0.,24.0
1979-08-02 11:33:06.720 ,3,1,0.,24.0,0.,24.0
1979-08-02 11:33:30.720 ,0,1,0.,24.0,0.,24.0
1979-08-02 11:33:54.720 ,4,1,0.,24.0,0.,24.0
1979-08-02 11:34:18.720 ,7,1,0.,24.0,0.,24.0
1979-08-02 11:34:42.720 ,3,1,0.,24.0,0.,24.0
1979-08-02 11:35:06.720 ,0,1,0.,24.0,0.,24.0
1979-08-02 11:35:30.720 ,4,1,0.,24.0,0.,24.0
1979-08-02 11:35:54.720 ,7,1,0.,24.0,0.,24.0
1979-08-02 11:36:18.720 ,3,1,0.,24.0,0.,24.0
1979-08-02 11:36:42.720 ,0,1,0.,24.0,0.,24.0
1979-08-02 11:37:06.720 ,4,1,0.,24.0,0.,24.0
1979-08-02 11:37:30.720 ,7,1,0.,24.0,0.,24.0
1979-08-02 11:37:54.720 ,3,1,0.,24.0,0.,24.0
1979-08-02 11:38:18.720 ,0,1,0.,24.0,0.,24.0
1979-08-02 11:38:42.720 ,4,1,0.,24.0,0.,24.0
1979-08-02 11:39:06.720 ,7,1,0.,24.0,0.,24.0
1979-08-02 11:39:30.720 ,3,1,0.,24.0,0.,24.0
1979-08-02 11:39:54.720 ,0,1,0.,24.0,0.,24.0
1979-08-02 11:40:18.720 ,4,1,0.,24.0,0.,24.0
1979-08-02 11:40:42.720 ,7,1,0.,24.0,0.,24.0
1979-08-02 11:41:06.720 ,3,1,0.,24.0,0.,24.0
1979-08-02 11:41:30.720 ,0,1,0.,24.0,0.,24.0
1979-08-02 11:41:54.720 ,0,0,0.,24.0,0.,24.0
1979-08-02 11:42:18.720 ,0,0,0.,24.0,0.,24.0
1979-08-02 11:42:42.720 ,5,1,0.,24.0,0.,24.0
1979-08-02 11:43:06.720 ,5,0,0.,24.0,0.,24.0
1979-08-02 11:43:30.720 ,4,1,0.,24.0,0.,24.0
1979-08-02 11:43:54.720 ,4,0,0.,24.0,0.,24.0
1979-08-02 11:44:18.720 ,3,1,0.,24.0,0.,24.0
1979-08-02 11:44:42.720 ,3,0,0.,24.0,0.,24.0
1979-08-02 11:45:06.720 ,2,1,0.,24.0,0.,24.0
1979-08-02 11:45:30.720 ,2,0,0.,24.0,0.,24.0
1979-08-02 11:45:54.720 ,1,1,0.,24.0,0.,24.0
1979-08-02 11:46:18.720 ,1,0,0.,24.0,0.,24.0
1979-08-02 11:46:42.720 ,0,1,0.,24.0,0.,24.0
1979-08-02 11:47:06.720 ,0,0,0.,24.0,0.,24.0
1979-08-02 11:47:30.720 ,0,1,0.,24.0,0.,24.0
1979-08-02 11:47:54.720 ,0,0,0.,24.0,0.,24.0
1979-08-02 11:48:18.720 ,1,1,0.,24.0,0.,24.0
1979-08-02 11:48:42.720 ,1,0,0.,24.0,0.,24.0
1979-08-02 11:49:06.720 ,2,1,0.,24.0,0.,24.0
1979-08-02 11:49:30.720 ,2,0,0.,24.0,0.,24.0
1979-08-02 11:49:54.720 ,3,1,0.,24.0,0.,24.0
1979-08-02 11:50:18.720 ,3,0,0.,24.0,0.,24.0
1979-08-02 11:50:42.720 ,4,1,0.,24.0,0.,24.0
1979-08-02 11:51:06.720 ,4,0,0.,24.0,0.,24.0
1979-08-02 11:51:30.720 ,5,1,0.,24.0,0.,24.0
1979-08-02 11:51:54.720 ,5,0,0.,24.0,0.,24.0
1979-08-02 11:52:18.720 ,6,1,0.,24.0,0.,24.0
1979-08-02 11:52:42.720 ,6,0,0.,24.0,0.,24.0
1979-08-02 11:53:06.720 ,7,1,0.,24.0,0.,24.0
1979-08-02 11:53:30.720 ,7,0,0.,24.0,0.,24.0
1979-08-02 11:53:54.720 ,7,1,0.,24.0,0.,24.0
1979-08-02 11:54:18.720 ,7,0,0.,24.0,0.,24.0
1979-08-02 11:54:42.720 ,6,1,0.,24.0,0.,24.0
1979-08-02 11:55:06.720 ,6,0,0.,24.0,0.,24.0
1979-08-02 11:55:30.720 ,5,1,0.,24.0,0.,24.0
1979-08-02 11:55:54.720 ,5,0,0.,24.0,0.,24.0
1979-08-02 11:56:18.720 ,4,1,0.,24.0,0.,24.0
1979-08-02 11:56:42.720 ,4,0,0.,24.0,0.,24.0
1979-08-02 11:57:06.720 ,3,1,0.,24.0,0.,24.0
1979-08-02 11:57:30.720 ,3,0,0.,24.0,0.,24.0
1979-08-02 11:57:54.720 ,2,1,0.,24.0,0.,24.0
1979-08-02 11:58:18.720 ,2,0,0.,24.0,0.,24.0
1979-08-02 11:58:42.720 ,1,1,0.,24.0,0.,24.0
1979-08-02 11:59:06.720 ,1,0,0.,24.0,0.,24.0
1979-08-02 11:59:30.720 ,0,1,0.,24.0,0.,24.0
1979-08-02 11:59:54.720 ,0,0,0.,24.0,0.,24.0
1979-08-02 12:00:18.720 ,0,1,0.,24.0,0.,24.0
